Hourly Data Report for October 16, 2017

All times are specified in Local Standard Time (LST). Add 1 hour to adjust for Daylight Saving Time where and when it is observed.

PORT HARDY A
BRITISH COLUMBIA

50°40'50.000" N
127°22'00.000" W
21.60 m
1026271
71109
YZT

Download Data

Hourly Data (October 2017)
Hourly Data Report for October 16, 2017
Temp Definition
°C
Dew Point Temp Definition
°C
Rel Hum Definition
%
Wind Dir Definition
10's deg

Wind Spd Definition
km/h
Visibility Definition
km
Stn Press Definition
kPa
Hmdx Definition


Wind Chill Definition


Weather Definition


TIME
00:00 Legend Double Dagger 9.5 8.0 90 13 16 12.9 101.56     LegendNANA
01:00 Legend Double Dagger 9.6 8.2 91 15 11 12.9 101.45     Cloudy
02:00 Legend Double Dagger 9.8 8.3 90 12 24 12.9 101.32     LegendNANA
03:00 Legend Double Dagger 9.8 8.6 92 13 22 11.3 101.20     Rain
04:00 Legend Double Dagger 10.0 9.1 94 14 15 11.3 101.10     Rain
05:00 Legend Double Dagger 10.1 9.3 95 12 17 11.3 101.02     Rain
06:00 Legend Double Dagger 10.1 9.3 95 14 16 4.8 100.95     Moderate Rain,Fog
07:00 Legend Double Dagger 10.1 9.4 96 13 14 3.2 100.88     Moderate Rain,Fog
08:00 Legend Double Dagger 10.4 9.8 96 13 8 2.4 100.90     Heavy Rain,Fog
09:00 Legend Double Dagger 10.5 9.9 96 13 17 4.8 100.85     Rain,Fog
10:00 Legend Double Dagger 10.9 10.3 96 14 10 3.2 100.82     Moderate Rain,Fog
11:00 Legend Double Dagger 11.0 10.4 96 14 13 4.8 100.83     Rain,Fog
12:00 Legend Double Dagger 11.8 11.3 97 15 10 2.4 100.89     Rain,Fog
13:00 Legend Double Dagger 12.0 11.5 97 15 7 1.6 100.88     Rain,Fog
14:00 Legend Double Dagger 14.6 13.0 90 22 19 4.8 100.85     Rain,Fog
15:00 Legend Double Dagger 12.4 11.6 95 12 12 4.8 100.82     Rain,Fog
16:00 Legend Double Dagger 11.6 11.0 96 15 6 6.4 100.75     Moderate Rain,Fog
17:00 Legend Double Dagger 11.4 10.8 96 10 8 6.4 100.65     Moderate Rain,Fog
18:00 Legend Double Dagger 11.1 10.6 97 13 5 4.8 100.53     Moderate Rain,Fog
19:00 Legend Double Dagger 11.1 10.5 97 11 15 3.2 100.41     Heavy Rain,Fog
20:00 Legend Double Dagger 10.3 9.8 97 7 4 3.2 100.30     Heavy Rain,Fog
21:00 Legend Double Dagger 10.8 10.3 97 16 5 3.2 100.20     Moderate Rain,Fog
22:00 Legend Double Dagger 11.0 10.5 97 13 4 3.2 100.12     Moderate Rain,Fog
23:00 Legend Double Dagger 11.0 10.6 97 19 4 4.8 100.13     Moderate Rain,Fog

Notes on Data Quality.

Legend

  • E = Estimated
  • M = Missing
  • NA = Not Available
  • ‡ = Partner data that is not subject to review by the National Climate Archives
Date modified: